When you browse on this site, cookies collect data to enhance your experience and personalize the content and advertising you see.
Visit our Privacy Policy to learn more. By continuing to use the site, you agree to this use of cookies and data.
  • En España
  • Lista de países
  • Para 7 días
  • Temperatura del agua
  • Mapa Satelital
  • El tiempo en el mapa
  • Informadores
  • user-avatar
    Iniciar sesión

    Tiempo cada hora Kadako

    Hoy, 22 Mayo, Miércoles

    Tiempo Temperatura Precipitaciones Viento Presión Humedad
    00:00 +20°C° 0 mm 1 mps 739 mmHg 83%
    01:00 +20°C° 0 mm 1 mps 739 mmHg 83%
    02:00 +20°C° 0 mm 1 mps 739 mmHg 83%
    03:00 +19°C° 0 mm 1 mps 739 mmHg 86%
    04:00 +18°C° 0 mm 1 mps 739 mmHg 89%
    05:00 +18°C° 0 mm 1 mps 739 mmHg 92%
    06:00 +19°C° 0 mm 1 mps 739 mmHg 87%
    07:00 +20°C° 0 mm 1 mps 739 mmHg 81%
    08:00 +21°C° 0 mm 1 mps 740 mmHg 76%
    09:00 +23°C° 0 mm 1 mps 740 mmHg 69%
    10:00 +24°C° 0 mm 1 mps 740 mmHg 62%
    11:00 +26°C° 0 mm 1 mps 740 mmHg 55%
    12:00 +27°C° 0 mm 1 mps 739 mmHg 52%
    13:00 +27°C° 0 mm 1 mps 739 mmHg 49%
    14:00 +28°C° 0 mm 1 mps 738 mmHg 47%
    15:00 +26°C° 0 mm 2 mps 738 mmHg 52%
    16:00 +25°C° 0 mm 2 mps 738 mmHg 58%
    17:00 +24°C° 0 mm 2 mps 738 mmHg 64%
    18:00 +22°C° 0 mm 1 mps 738 mmHg 72%
    19:00 +21°C° 0 mm 1 mps 738 mmHg 80%
    20:00 +19°C° 0 mm 1 mps 738 mmHg 88%
    21:00 +19°C° 0 mm 1 mps 739 mmHg 89%
    22:00 +17°C° 0 mm 0 mps 739 mmHg 90%
    23:00 +17°C° 0 mm 0 mps 739 mmHg 90%

    Mañana, 23 Mayo, Jueves

    Tiempo Temperatura Precipitaciones Viento Presión Humedad
    00:00 +17°C° 0 mm 0 mps 739 mmHg 91%
    01:00 +17°C° 0 mm 0 mps 738 mmHg 92%
    02:00 +19°C° 0 mm 1 mps 738 mmHg 93%
    03:00 +17°C° 0 mm 0 mps 738 mmHg 94%
    04:00 +17°C° 0 mm 0 mps 738 mmHg 94%
    05:00 +16°C° 0 mm 0 mps 737 mmHg 95%
    06:00 +17°C° 0 mm 0 mps 738 mmHg 91%
    07:00 +18°C° 0 mm 0 mps 738 mmHg 86%
    08:00 +19°C° 0 mm 0 mps 739 mmHg 82%
    09:00 +22°C° 0 mm 1 mps 739 mmHg 74%
    10:00 +24°C° 0 mm 1 mps 739 mmHg 66%
    11:00 +26°C° 0 mm 1 mps 739 mmHg 58%
    12:00 +27°C° 0 mm 2 mps 738 mmHg 53%
    13:00 +29°C° 0 mm 2 mps 737 mmHg 48%
    14:00 +30°C° 0 mm 2 mps 737 mmHg 43%
    15:00 +28°C° 0 mm 1 mps 737 mmHg 47%
    16:00 +27°C° 0 mm 1 mps 737 mmHg 52%
    17:00 +25°C° 0 mm 1 mps 737 mmHg 57%
    18:00 +24°C° 0 mm 1 mps 738 mmHg 67%
    19:00 +22°C° 0 mm 1 mps 739 mmHg 76%
    20:00 +21°C° 0 mm 1 mps 739 mmHg 85%
    21:00 +18°C° 0 mm 0 mps 740 mmHg 88%
    22:00 +18°C° 0 mm 0 mps 740 mmHg 90%
    23:00 +18°C° 0 mm 0 mps 741 mmHg 92%

    Pasado mañana, 24 Mayo, Viernes

    Tiempo Temperatura Precipitaciones Viento Presión Humedad
    00:00 +18°C° 0.1 mm 0 mps 740 mmHg 93%
    01:00 +18°C° 0.1 mm 0 mps 740 mmHg 93%
    02:00 +18°C° 0.1 mm 0 mps 740 mmHg 93%
    03:00 +18°C° 0.1 mm 0 mps 740 mmHg 92%
    04:00 +18°C° 0.1 mm 0 mps 740 mmHg 91%
    05:00 +18°C° 0.1 mm 0 mps 740 mmHg 90%
    06:00 +19°C° 0.1 mm 0 mps 741 mmHg 87%
    07:00 +20°C° 0.1 mm 0 mps 741 mmHg 84%
    08:00 +20°C° 0.1 mm 0 mps 742 mmHg 81%
    09:00 +22°C° 0.1 mm 0 mps 742 mmHg 73%
    10:00 +26°C° 0.1 mm 1 mps 742 mmHg 66%
    11:00 +27°C° 0.1 mm 1 mps 742 mmHg 58%
    12:00 +28°C° 0 mm 1 mps 741 mmHg 54%
    13:00 +28°C° 0 mm 1 mps 741 mmHg 50%
    14:00 +29°C° 0 mm 2 mps 740 mmHg 46%
    15:00 +28°C° 0 mm 2 mps 740 mmHg 51%
    16:00 +26°C° 0 mm 1 mps 740 mmHg 56%
    17:00 +25°C° 0 mm 1 mps 740 mmHg 61%
    18:00 +23°C° 0.4 mm 1 mps 740 mmHg 69%
    19:00 +22°C° 0.4 mm 1 mps 741 mmHg 77%
    20:00 +21°C° 0.4 mm 1 mps 741 mmHg 85%
    21:00 +20°C° 0.1 mm 1 mps 741 mmHg 88%
    22:00 +18°C° 0.1 mm 0 mps 741 mmHg 91%
    23:00 +17°C° 0.1 mm 0 mps 742 mmHg 93%

    25 Mayo, Sábado

    Tiempo Temperatura Precipitaciones Viento Presión Humedad
    00:00 +17°C° 0 mm 0 mps 741 mmHg 93%
    01:00 +16°C° 0 mm 0 mps 741 mmHg 94%
    02:00 +16°C° 0 mm 0 mps 741 mmHg 94%
    03:00 +16°C° 0 mm 0 mps 741 mmHg 94%
    04:00 +16°C° 0 mm 0 mps 741 mmHg 94%
    05:00 +15°C° 0 mm 0 mps 741 mmHg 94%
    06:00 +17°C° 0 mm 0 mps 741 mmHg 89%
    07:00 +18°C° 0 mm 0 mps 742 mmHg 84%
    08:00 +19°C° 0 mm 0 mps 742 mmHg 79%
    09:00 +21°C° 0 mm 0 mps 742 mmHg 68%
    10:00 +24°C° 0 mm 0 mps 742 mmHg 58%
    11:00 +28°C° 0 mm 1 mps 742 mmHg 47%
    12:00 +29°C° 0 mm 1 mps 741 mmHg 43%
    13:00 +29°C° 0 mm 1 mps 741 mmHg 39%
    14:00 +30°C° 0 mm 1 mps 740 mmHg 35%
    15:00 +28°C° 0 mm 1 mps 740 mmHg 38%
    16:00 +26°C° 0 mm 1 mps 740 mmHg 42%
    17:00 +24°C° 0 mm 1 mps 740 mmHg 45%
    18:00 +23°C° 0 mm 1 mps 740 mmHg 53%
    19:00 +21°C° 0 mm 1 mps 741 mmHg 60%
    20:00 +19°C° 0 mm 1 mps 741 mmHg 67%
    21:00 +19°C° 0 mm 1 mps 741 mmHg 71%
    22:00 +18°C° 0 mm 1 mps 741 mmHg 74%
    23:00 +16°C° 0 mm 0 mps 741 mmHg 78%

    26 Mayo, Domingo

    Tiempo Temperatura Precipitaciones Viento Presión Humedad
    00:00 +15°C° 0 mm 0 mps 741 mmHg 79%
    01:00 +15°C° 0 mm 0 mps 740 mmHg 80%
    02:00 +15°C° 0 mm 0 mps 740 mmHg 81%
    03:00 +14°C° 0 mm 0 mps 740 mmHg 82%
    04:00 +14°C° 0 mm 0 mps 740 mmHg 82%
    05:00 +14°C° 0 mm 0 mps 740 mmHg 82%
    06:00 +15°C° 0 mm 0 mps 740 mmHg 76%
    07:00 +16°C° 0 mm 0 mps 741 mmHg 70%
    08:00 +18°C° 0 mm 0 mps 741 mmHg 64%
    09:00 +20°C° 0 mm 0 mps 741 mmHg 56%
    10:00 +25°C° 0 mm 1 mps 741 mmHg 47%
    11:00 +28°C° 0 mm 1 mps 741 mmHg 39%
    12:00 +29°C° 0 mm 1 mps 740 mmHg 36%
    13:00 +29°C° 0 mm 1 mps 740 mmHg 33%
    14:00 +30°C° 0 mm 1 mps 739 mmHg 30%
    15:00 +28°C° 0 mm 1 mps 739 mmHg 34%
    16:00 +26°C° 0 mm 1 mps 739 mmHg 39%
    17:00 +24°C° 0 mm 1 mps 739 mmHg 43%
    18:00 +22°C° 0 mm 1 mps 740 mmHg 52%
    19:00 +20°C° 0 mm 1 mps 740 mmHg 61%
    20:00 +19°C° 0 mm 1 mps 740 mmHg 69%
    21:00 +18°C° 0 mm 1 mps 740 mmHg 73%
    22:00 +18°C° 0 mm 1 mps 740 mmHg 77%
    23:00 +16°C° 0 mm 1 mps 740 mmHg 80%

    27 Mayo, Lunes

    Tiempo Temperatura Precipitaciones Viento Presión Humedad
    00:00 +16°C° 0 mm 1 mps 740 mmHg 81%
    01:00 +14°C° 0 mm 0 mps 740 mmHg 81%
    02:00 +14°C° 0 mm 0 mps 739 mmHg 81%
    03:00 +14°C° 0 mm 0 mps 740 mmHg 81%
    04:00 +13°C° 0 mm 0 mps 740 mmHg 81%
    05:00 +13°C° 0 mm 0 mps 740 mmHg 81%
    06:00 +14°C° 0 mm 0 mps 740 mmHg 75%
    07:00 +16°C° 0 mm 0 mps 741 mmHg 68%
    08:00 +17°C° 0 mm 0 mps 741 mmHg 61%
    09:00 +22°C° 0 mm 1 mps 741 mmHg 53%
    10:00 +24°C° 0 mm 1 mps 741 mmHg 46%
    11:00 +27°C° 0 mm 1 mps 741 mmHg 38%
    12:00 +28°C° 0 mm 1 mps 740 mmHg 35%
    13:00 +28°C° 0 mm 1 mps 740 mmHg 32%
    14:00 +29°C° 0 mm 1 mps 739 mmHg 29%
    15:00 +27°C° 0 mm 1 mps 739 mmHg 33%
    16:00 +25°C° 0 mm 1 mps 739 mmHg 37%
    17:00 +23°C° 0 mm 1 mps 739 mmHg 42%
    18:00 +22°C° 0 mm 1 mps 739 mmHg 48%
    19:00 +20°C° 0 mm 1 mps 740 mmHg 55%
    20:00 +18°C° 0 mm 1 mps 740 mmHg 61%
    21:00 +16°C° 0 mm 0 mps 740 mmHg 65%
    22:00 +15°C° 0 mm 0 mps 740 mmHg 70%
    23:00 +14°C° 0 mm 0 mps 740 mmHg 74%
    Mostrar más